Total_Precipitation_Accumulation
1.87 1.70 1.65 1.65 1.61 1.51 1.37 1.24 1.16 1.12 1.06 1.00 0.87 0.75 0.71 0.68 0.62 0.60 0.68 0.80 0.98 1.33 1.68 1.89 2.00 2.00 2.00 1.98 1.79 1.66 1.51 1.38 1.30 1.27 1.25 1.23 1.17 1.19 1.28 1.38 1.37 1.31 1.26
2.34 2.15 2.00 1.90 1.81 1.74 1.62 1.49 1.38 1.37 1.31 1.19 1.08 0.90 0.80 0.78 0.77 0.76 0.76 0.80 0.84 1.00 1.42 1.78 2.04 2.21 2.31 2.36 2.20 1.85 1.66 1.48 1.37 1.35 1.30 1.27 1.24 1.22 1.24 1.25 1.35 1.38 1.38
2.49 2.45 2.34 2.23 2.13 2.07 1.95 1.81 1.70 1.61 1.53 1.42 1.27 1.13 1.00 0.90 0.88 0.92 0.92 0.90 0.90 0.92 1.20 1.62 1.88 2.13 2.34 2.54 2.58 2.37 2.03 1.74 1.59 1.48 1.41 1.29 1.22 1.25 1.28 1.27 1.28 1.32 1.37
2.59 2.53 2.42 2.27 2.23 2.32 2.31 2.13 1.96 1.84 1.68 1.57 1.45 1.28 1.11 1.03 0.97 0.96 1.00 1.05 1.05 0.94 1.00 1.34 1.64 1.90 2.13 2.43 2.60 2.72 2.63 2.23 1.95 1.78 1.61 1.42 1.29 1.25 1.25 1.26 1.26 1.24 1.28
2.76 2.72 2.60 2.51 2.47 2.35 2.34 2.30 2.15 1.96 1.84 1.74 1.64 1.49 1.30 1.16 1.06 1.03 1.00 1.00 1.06 1.02 0.95 1.07 1.27 1.51 1.80 2.10 2.38 2.69 2.89 2.70 2.35 2.08 1.87 1.68 1.52 1.40 1.36 1.37 1.38 1.34 1.33
2.87 2.80 2.64 2.64 2.74 2.62 2.47 2.34 2.31 2.18 1.96 1.88 1.85 1.76 1.59 1.43 1.31 1.18 1.09 1.06 1.05 1.05 1.04 0.98 1.02 1.12 1.36 1.75 2.11 2.44 2.67 2.80 2.74 2.52 2.25 1.99 1.79 1.68 1.64 1.63 1.60 1.57 1.54
2.94 2.98 2.80 2.65 2.68 2.61 2.48 2.43 2.40 2.47 2.39 2.22 2.27 2.22 2.03 1.80 1.61 1.44 1.31 1.25 1.19 1.16 1.16 1.15 1.10 1.04 1.09 1.35 1.68 2.00 2.28 2.53 2.64 2.59 2.50 2.36 2.16 1.99 1.91 1.88 1.81 1.77 1.77
2.82 2.87 2.91 2.86 2.75 2.67 2.61 2.59 2.60 2.67 2.70 2.65 2.64 2.65 2.54 2.38 1.96 1.59 1.46 1.37 1.29 1.27 1.24 1.21 1.17 1.11 1.04 1.11 1.27 1.49 1.78 2.19 2.48 2.60 2.54 2.44 2.35 2.32 2.29 2.26 2.17 2.09 2.02
2.81 2.74 2.75 2.86 2.87 2.78 2.63 2.58 2.58 2.63 2.70 2.70 2.69 2.84 2.63 2.26 1.90 1.69 1.47 1.35 1.32 1.34 1.31 1.33 1.35 1.29 1.19 1.13 1.12 1.24 1.37 1.67 2.11 2.47 2.66 2.64 2.57 2.57 2.59 2.67 2.68 2.59 2.43
2.83 2.78 2.74 2.79 2.82 2.77 2.63 2.57 2.52 2.55 2.64 2.68 2.67 2.59 2.41 2.03 1.85 1.80 1.64 1.45 1.38 1.38 1.41 1.40 1.42 1.46 1.44 1.38 1.30 1.27 1.27 1.36 1.80 2.25 2.67 2.84 2.88 2.91 2.94 2.93 2.96 2.97 2.84
2.80 2.75 2.71 2.73 2.71 2.65 2.61 2.68 2.62 2.61 2.65 2.63 2.56 2.48 2.44 2.17 1.88 1.83 1.75 1.60 1.56 1.47 1.49 1.55 1.50 1.50 1.50 1.47 1.37 1.34 1.38 1.38 1.70 2.20 2.74 3.01 3.08 3.20 3.32 3.32 3.26 3.21 3.15
2.78 2.68 2.59 2.56 2.54 2.58 2.63 2.67 2.73 2.69 2.68 2.70 2.63 2.49 2.47 2.42 2.15 2.02 1.93 1.72 1.72 1.63 1.51 1.54 1.57 1.52 1.51 1.47 1.41 1.50 1.41 1.41 1.54 1.89 2.49 2.98 3.05 3.12 3.35 3.55 3.54 3.39 3.29
2.51 2.46 2.46 2.43 2.38 2.33 2.40 2.56 2.71 2.71 2.66 2.66 2.65 2.60 2.52 2.41 2.22 2.18 2.19 2.04 1.94 1.86 1.80 1.71 1.61 1.55 1.52 1.53 1.55 1.62 1.45 1.47 1.55 1.74 2.17 2.67 2.83 2.79 2.89 3.22 3.57 3.66 3.64
2.45 2.42 2.41 2.38 2.37 2.35 2.31 2.38 2.52 2.62 2.64 2.58 2.46 2.44 2.43 2.37 2.36 2.34 2.32 2.39 2.37 2.14 1.96 1.82 1.68 1.63 1.61 1.60 1.74 1.87 1.60 1.72 1.73 1.81 2.04 2.33 2.49 2.46 2.47 2.60 2.93 3.26 3.44
2.33 2.35 2.37 2.37 2.39 2.40 2.36 2.37 2.43 2.44 2.49 2.51 2.46 2.37 2.31 2.22 2.25 2.27 2.24 2.33 2.55 2.49 2.10 1.73 1.67 1.74 1.81 1.80 1.97 1.86 1.72 1.96 1.95 1.90 1.96 2.08 2.16 2.21 2.25 2.30 2.38 2.53 2.74
2.16 2.15 2.14 2.15 2.17 2.24 2.28 2.30 2.30 2.27 2.28 2.30 2.34 2.37 2.33 2.21 2.21 2.30 2.39 2.39 2.43 2.49 2.25 1.68 1.51 1.59 1.82 1.99 2.21 2.01 1.90 2.20 2.10 1.98 1.93 1.91 1.92 1.92 1.99 2.06 2.12 2.21 2.30
2.05 2.02 1.95 1.97 1.95 1.97 2.05 2.14 2.13 2.14 2.19 2.17 2.20 2.25 2.26 2.22 2.25 2.30 2.42 2.49 2.52 2.58 2.52 1.96 1.65 1.62 1.77 1.90 2.01 1.97 1.94 1.98 1.96 2.08 1.92 1.78 1.74 1.73 1.76 1.80 1.88 1.96 2.04
1.89 1.95 1.90 1.86 1.84 1.81 1.83 1.91 1.95 1.98 2.03 2.05 2.06 2.12 2.16 2.19 2.25 2.28 2.41 2.45 2.40 2.36 2.38 2.22 1.89 1.73 1.69 1.68 1.75 1.82 1.83 1.80 1.77 1.99 1.92 1.78 1.66 1.64 1.66 1.70 1.74 1.81 1.90
1.70 1.75 1.81 1.77 1.74 1.74 1.79 1.80 1.79 1.82 1.84 1.86 1.89 1.95 1.95 2.01 2.10 2.12 2.21 2.30 2.27 2.24 2.21 2.13 1.86 1.65 1.61 1.60 1.72 1.80 1.80 1.73 1.65 1.80 1.82 1.80 1.73 1.67 1.66 1.62 1.63 1.66 1.69
1.50 1.54 1.63 1.64 1.61 1.62 1.69 1.74 1.79 1.80 1.78 1.77 1.79 1.85 1.89 1.92 1.93 1.98 2.09 2.15 2.18 2.23 2.24 2.21 2.04 1.77 1.61 1.56 1.64 1.75 1.82 1.75 1.65 1.59 1.77 1.77 1.79 1.75 1.69 1.55 1.45 1.44 1.44
1.32 1.30 1.35 1.42 1.48 1.52 1.60 1.66 1.75 1.81 1.80 1.78 1.78 1.82 1.88 2.07 2.11 2.10 2.13 2.09 2.13 2.25 2.27 2.25 2.09 1.89 1.68 1.59 1.62 1.54 1.59 1.66 1.70 1.63 1.66 1.63 1.62 1.59 1.59 1.61 1.56 1.49 1.49
1.25 1.27 1.30 1.28 1.34 1.43 1.75 1.84 1.79 1.81 1.85 1.83 1.79 1.75 1.81 1.98 1.96 2.01 2.06 2.09 2.16 2.30 2.35 2.26 2.04 1.76 1.46 1.26 1.28 1.43 1.57 1.75 1.85 1.61 1.60 1.68 1.60 1.66 1.56 1.52 1.66 1.58 1.55
1.21 1.30 1.34 1.36 1.36 1.50 1.80 1.85 1.96 1.88 1.85 1.80 1.74 1.68 1.64 1.61 1.69 1.54 1.67 1.87 1.96 1.99 1.97 1.93 1.90 1.54 1.31 1.18 1.31 1.53 1.58 1.62 1.50 1.35 1.56 1.85 1.74 1.72 1.55 1.55 1.73 1.61 1.59
1.28 1.41 1.49 1.53 1.57 1.66 1.80 1.76 1.86 1.72 1.66 1.61 1.54 1.51 1.47 1.39 1.40 1.47 1.55 1.67 1.57 1.52 1.51 1.42 1.38 1.27 1.23 1.29 1.47 1.69 1.80 1.85 1.67 1.53 1.61 1.91 1.76 1.68 1.53 1.51 1.70 1.65 1.65
1.54 1.56 1.60 1.57 1.56 1.60 1.68 1.65 1.67 1.56 1.54 1.45 1.35 1.33 1.34 1.29 1.45 1.69 1.74 1.66 1.48 1.42 1.49 1.56 1.57 1.55 1.68 1.80 1.88 2.12 2.33 2.47 2.22 1.77 1.54 1.60 1.53 1.50 1.51 1.52 1.61 1.75 1.72
1.48 1.50 1.53 1.52 1.46 1.42 1.49 1.51 1.52 1.45 1.41 1.28 1.22 1.21 1.32 1.31 1.54 1.78 1.75 1.68 1.54 1.30 1.29 1.43 1.51 1.52 1.52 1.63 1.87 1.90 2.03 2.39 2.21 1.81 1.31 1.30 1.37 1.52 1.89 1.60 1.43 1.49 1.66